When you browse on this site, cookies collect data to enhance your experience and personalize the content and advertising you see.
Visit our Privacy Policy to learn more. By continuing to use the site, you agree to this use of cookies and data.
  • en Suisse
  • Liste des pays
  • À 7 jours
  • Température de l'eau
  • Carte météo
  • Widgets météo
  • user-avatar
    Se connecter

    Météo par heure à Erevan

    Ce jour, 23 Octobre, Mercredi

    Heure Température Précipitation Vent Pression Humidité
    00:00 +16°C° 0 mm 1 m/s 693 mmHg 63%
    01:00 +15°C° 0 mm 1 m/s 693 mmHg 64%
    02:00 +15°C° 0 mm 1 m/s 693 mmHg 64%
    03:00 +13°C° 0 mm 0 m/s 693 mmHg 68%
    04:00 +13°C° 0 mm 0 m/s 692 mmHg 70%
    05:00 +12°C° 0 mm 0 m/s 692 mmHg 72%
    06:00 +11°C° 0 mm 0 m/s 692 mmHg 74%
    07:00 +13°C° 0 mm 0 m/s 692 mmHg 67%
    08:00 +15°C° 0 mm 1 m/s 693 mmHg 60%
    09:00 +18°C° 0 mm 1 m/s 693 mmHg 54%
    10:00 +19°C° 0 mm 1 m/s 693 mmHg 51%
    11:00 +20°C° 0 mm 1 m/s 693 mmHg 48%
    12:00 +21°C° 0 mm 1 m/s 693 mmHg 46%
    13:00 +21°C° 0 mm 1 m/s 693 mmHg 44%
    14:00 +22°C° 0 mm 1 m/s 692 mmHg 42%
    15:00 +22°C° 0 mm 1 m/s 692 mmHg 41%
    16:00 +20°C° 0 mm 1 m/s 692 mmHg 46%
    17:00 +17°C° 0 mm 0 m/s 692 mmHg 51%
    18:00 +15°C° 0 mm 0 m/s 692 mmHg 55%
    19:00 +15°C° 0 mm 0 m/s 692 mmHg 56%
    20:00 +16°C° 0 mm 1 m/s 692 mmHg 57%
    21:00 +15°C° 0 mm 1 m/s 692 mmHg 58%
    22:00 +15°C° 0 mm 1 m/s 692 mmHg 58%
    23:00 +14°C° 0 mm 1 m/s 692 mmHg 58%

    Demain, 24 Octobre, Jeudi

    Heure Température Précipitation Vent Pression Humidité
    00:00 +14°C° 0 mm 1 m/s 692 mmHg 59%
    01:00 +13°C° 0 mm 1 m/s 692 mmHg 60%
    02:00 +13°C° 0 mm 1 m/s 692 mmHg 60%
    03:00 +13°C° 0 mm 1 m/s 692 mmHg 61%
    04:00 +12°C° 0 mm 1 m/s 692 mmHg 62%
    05:00 +12°C° 0 mm 1 m/s 692 mmHg 63%
    06:00 +11°C° 0 mm 1 m/s 692 mmHg 64%
    07:00 +13°C° 0 mm 1 m/s 692 mmHg 56%
    08:00 +15°C° 0 mm 1 m/s 693 mmHg 49%
    09:00 +18°C° 0 mm 1 m/s 693 mmHg 42%
    10:00 +19°C° 0 mm 1 m/s 693 mmHg 40%
    11:00 +21°C° 0 mm 1 m/s 693 mmHg 38%
    12:00 +22°C° 0 mm 1 m/s 693 mmHg 36%
    13:00 +22°C° 0 mm 1 m/s 693 mmHg 35%
    14:00 +23°C° 0 mm 1 m/s 692 mmHg 33%
    15:00 +23°C° 0 mm 1 m/s 692 mmHg 32%
    16:00 +21°C° 0 mm 1 m/s 692 mmHg 37%
    17:00 +20°C° 0 mm 1 m/s 692 mmHg 41%
    18:00 +18°C° 0 mm 1 m/s 692 mmHg 46%
    19:00 +16°C° 0 mm 1 m/s 692 mmHg 47%
    20:00 +16°C° 0 mm 1 m/s 692 mmHg 48%
    21:00 +15°C° 0 mm 2 m/s 692 mmHg 50%
    22:00 +15°C° 0 mm 1 m/s 692 mmHg 52%
    23:00 +14°C° 0 mm 1 m/s 692 mmHg 54%

    Après-demain, 25 Octobre, Vendredi

    Heure Température Précipitation Vent Pression Humidité
    00:00 +14°C° 0 mm 1 m/s 692 mmHg 56%
    01:00 +13°C° 0 mm 1 m/s 692 mmHg 57%
    02:00 +13°C° 0 mm 1 m/s 692 mmHg 59%
    03:00 +12°C° 0 mm 1 m/s 691 mmHg 60%
    04:00 +12°C° 0 mm 1 m/s 691 mmHg 62%
    05:00 +12°C° 0 mm 1 m/s 691 mmHg 63%
    06:00 +11°C° 0 mm 1 m/s 691 mmHg 64%
    07:00 +13°C° 0 mm 1 m/s 691 mmHg 57%
    08:00 +16°C° 0 mm 1 m/s 692 mmHg 49%
    09:00 +19°C° 0 mm 1 m/s 692 mmHg 41%
    10:00 +20°C° 0 mm 1 m/s 692 mmHg 39%
    11:00 +21°C° 0 mm 1 m/s 692 mmHg 36%
    12:00 +22°C° 0 mm 1 m/s 692 mmHg 34%
    13:00 +23°C° 0 mm 1 m/s 692 mmHg 32%
    14:00 +23°C° 0 mm 1 m/s 691 mmHg 30%
    15:00 +24°C° 0 mm 2 m/s 691 mmHg 28%
    16:00 +22°C° 0 mm 1 m/s 691 mmHg 33%
    17:00 +20°C° 0 mm 1 m/s 691 mmHg 37%
    18:00 +18°C° 0 mm 1 m/s 690 mmHg 41%
    19:00 +18°C° 0 mm 1 m/s 691 mmHg 42%
    20:00 +16°C° 0 mm 1 m/s 691 mmHg 44%
    21:00 +16°C° 0 mm 1 m/s 691 mmHg 45%
    22:00 +15°C° 0 mm 1 m/s 691 mmHg 46%
    23:00 +14°C° 0 mm 1 m/s 690 mmHg 47%

    26 Octobre, Samedi

    Heure Température Précipitation Vent Pression Humidité
    00:00 +14°C° 0 mm 1 m/s 690 mmHg 48%
    01:00 +13°C° 0 mm 1 m/s 690 mmHg 50%
    02:00 +13°C° 0 mm 1 m/s 690 mmHg 52%
    03:00 +13°C° 0 mm 1 m/s 690 mmHg 53%
    04:00 +12°C° 0 mm 1 m/s 690 mmHg 55%
    05:00 +12°C° 0 mm 1 m/s 690 mmHg 57%
    06:00 +12°C° 0 mm 1 m/s 690 mmHg 58%
    07:00 +14°C° 0 mm 1 m/s 690 mmHg 51%
    08:00 +16°C° 0 mm 1 m/s 691 mmHg 44%
    09:00 +19°C° 0 mm 1 m/s 691 mmHg 37%
    10:00 +20°C° 0 mm 1 m/s 691 mmHg 34%
    11:00 +22°C° 0 mm 1 m/s 691 mmHg 32%
    12:00 +23°C° 0 mm 1 m/s 691 mmHg 29%
    13:00 +23°C° 0 mm 1 m/s 691 mmHg 28%
    14:00 +24°C° 0 mm 1 m/s 691 mmHg 26%
    15:00 +24°C° 0 mm 1 m/s 690 mmHg 25%
    16:00 +22°C° 0 mm 1 m/s 690 mmHg 29%
    17:00 +20°C° 0 mm 1 m/s 690 mmHg 34%
    18:00 +18°C° 0 mm 1 m/s 690 mmHg 38%
    19:00 +17°C° 0 mm 2 m/s 690 mmHg 41%
    20:00 +16°C° 0 mm 2 m/s 691 mmHg 44%
    21:00 +15°C° 0 mm 2 m/s 691 mmHg 47%
    22:00 +15°C° 0 mm 2 m/s 691 mmHg 50%
    23:00 +14°C° 0 mm 2 m/s 691 mmHg 53%

    27 Octobre, Dimanche

    Heure Température Précipitation Vent Pression Humidité
    00:00 +14°C° 0 mm 1 m/s 691 mmHg 56%
    01:00 +13°C° 0 mm 1 m/s 691 mmHg 58%
    02:00 +13°C° 0 mm 1 m/s 690 mmHg 61%
    03:00 +12°C° 0 mm 1 m/s 690 mmHg 63%
    04:00 +12°C° 0 mm 1 m/s 690 mmHg 65%
    05:00 +11°C° 0 mm 1 m/s 691 mmHg 66%
    06:00 +11°C° 0 mm 1 m/s 691 mmHg 67%
    07:00 +13°C° 0 mm 1 m/s 691 mmHg 60%
    08:00 +15°C° 0 mm 1 m/s 691 mmHg 52%
    09:00 +18°C° 0 mm 1 m/s 692 mmHg 44%
    10:00 +19°C° 0 mm 1 m/s 692 mmHg 41%
    11:00 +20°C° 0 mm 1 m/s 692 mmHg 38%
    12:00 +22°C° 0 mm 1 m/s 692 mmHg 36%
    13:00 +22°C° 0 mm 1 m/s 691 mmHg 34%
    14:00 +22°C° 0 mm 1 m/s 691 mmHg 33%
    15:00 +23°C° 0 mm 1 m/s 691 mmHg 31%
    16:00 +21°C° 0 mm 1 m/s 691 mmHg 36%
    17:00 +19°C° 0 mm 1 m/s 690 mmHg 41%
    18:00 +16°C° 0 mm 1 m/s 690 mmHg 45%
    19:00 +16°C° 0 mm 1 m/s 690 mmHg 47%
    20:00 +15°C° 0 mm 1 m/s 691 mmHg 48%
    21:00 +15°C° 0 mm 1 m/s 691 mmHg 50%
    22:00 +14°C° 0 mm 1 m/s 691 mmHg 51%
    23:00 +14°C° 0 mm 1 m/s 690 mmHg 53%

    28 Octobre, Lundi

    Heure Température Précipitation Vent Pression Humidité
    00:00 +13°C° 0 mm 1 m/s 690 mmHg 54%
    01:00 +13°C° 0 mm 1 m/s 690 mmHg 57%
    02:00 +12°C° 0 mm 1 m/s 690 mmHg 59%
    03:00 +12°C° 0 mm 1 m/s 690 mmHg 61%
    04:00 +12°C° 0 mm 1 m/s 689 mmHg 63%
    05:00 +11°C° 0 mm 1 m/s 689 mmHg 64%
    06:00 +11°C° 0 mm 1 m/s 689 mmHg 66%
    07:00 +13°C° 0 mm 1 m/s 690 mmHg 58%
    08:00 +15°C° 0 mm 1 m/s 690 mmHg 50%
    09:00 +18°C° 0 mm 1 m/s 690 mmHg 42%
    10:00 +19°C° 0 mm 1 m/s 690 mmHg 40%
    11:00 +21°C° 0 mm 1 m/s 690 mmHg 37%
    12:00 +22°C° 0 mm 1 m/s 690 mmHg 35%
    13:00 +22°C° 0 mm 1 m/s 689 mmHg 33%
    14:00 +23°C° 0 mm 1 m/s 689 mmHg 31%
    15:00 +23°C° 0 mm 2 m/s 689 mmHg 29%
    16:00 +21°C° 0 mm 1 m/s 688 mmHg 34%
    17:00 +19°C° 0 mm 1 m/s 688 mmHg 38%
    18:00 +16°C° 0 mm 1 m/s 688 mmHg 43%
    19:00 +16°C° 0 mm 1 m/s 688 mmHg 44%
    20:00 +16°C° 0 mm 2 m/s 688 mmHg 44%
    21:00 +15°C° 0 mm 2 m/s 688 mmHg 45%
    22:00 +15°C° 0 mm 2 m/s 688 mmHg 46%
    23:00 +14°C° 0 mm 1 m/s 688 mmHg 47%

    29 Octobre, Mardi

    Heure Température Précipitation Vent Pression Humidité
    00:00 +14°C° 0 mm 1 m/s 688 mmHg 47%
    01:00 +13°C° 0 mm 1 m/s 688 mmHg 50%
    02:00 +13°C° 0 mm 1 m/s 687 mmHg 52%
    03:00 +11°C° 0 mm 0 m/s 687 mmHg 54%
    04:00 +11°C° 0 mm 0 m/s 687 mmHg 55%
    05:00 +12°C° 0 mm 1 m/s 687 mmHg 56%
    06:00 +11°C° 0 mm 1 m/s 687 mmHg 57%
    07:00 +14°C° 0 mm 1 m/s 688 mmHg 50%
    08:00 +16°C° 0 mm 1 m/s 688 mmHg 43%
    09:00 +19°C° 0 mm 1 m/s 689 mmHg 36%
    10:00 +20°C° 0 mm 1 m/s 688 mmHg 34%
    11:00 +21°C° 0 mm 1 m/s 688 mmHg 32%
    12:00 +22°C° 0 mm 1 m/s 688 mmHg 30%
    13:00 +23°C° 0 mm 2 m/s 688 mmHg 30%
    14:00 +23°C° 0 mm 2 m/s 688 mmHg 29%
    15:00 +23°C° 0 mm 2 m/s 688 mmHg 29%
    16:00 +20°C° 0 mm 2 m/s 687 mmHg 35%
    17:00 +19°C° 0 mm 3 m/s 687 mmHg 41%
    18:00 +17°C° 0 mm 3 m/s 687 mmHg 46%
    19:00 +16°C° 0.1 mm 3 m/s 687 mmHg 49%
    20:00 +15°C° 0.1 mm 2 m/s 688 mmHg 52%
    21:00 +15°C° 0.1 mm 1 m/s 688 mmHg 54%
    22:00 +14°C° 0 mm 1 m/s 688 mmHg 56%
    23:00 +13°C° 0 mm 1 m/s 688 mmHg 58%
    Voir plus